• Currently

    Reported at Jamestown, Jamestown Municipal Airport, ND
    6:56 AM CST SAT SEP 23 2017
  • 48°F9°C
  • Overcast
    Overcast
  • Feels Like:48°F9°CDew Point:45°F7°CHumidity:87% Winds:N 14 mph 23 kph
    Pressure:30 in1016 hPaVisibility:10.00 miles16090.00 meters
Time Weather Temp Dew Point
Humidity Winds Visibility Pressure Precipitation
1 hr 24 hr
Saturday, September 23
09:15 09:15 Cloudy Cloudy 50°F10°C 50°F10°C 100% N 10 mphN 17 kph 10.0 miles16.1 km 30.06 in1018 hPa 0.00 in0.00 mm --
08:55 08:55 Cloudy Cloudy 50°F10°C 50°F10°C 100% N 17 mphN 28 kph 10.0 miles16.1 km 30.03 in1017 hPa 0.00 in0.00 mm --
08:35 08:35 Cloudy Cloudy 50°F10°C 50°F10°C 100% N 15 mphN 24 kph 10.0 miles16.1 km 30.03 in1017 hPa 0.00 in0.00 mm --
08:15 08:15 Cloudy Cloudy 50°F10°C 50°F10°C 100% N 15 mphN 24 kph 10.0 miles16.1 km 30.03 in1017 hPa 0.00 in0.00 mm --
07:55 07:55 Cloudy Cloudy 50°F10°C 50°F10°C 100% N 13 mphN 20 kph 10.0 miles16.1 km 30.03 in1017 hPa 0.00 in0.00 mm --
07:35 07:35 Cloudy Cloudy 50°F10°C 50°F10°C 100% N 13 mphN 20 kph 10.0 miles16.1 km 30.03 in1017 hPa 0.00 in0.00 mm --
07:15 07:15 Cloudy Cloudy 48°F9°C 48°F9°C 100% NNW 15 mphNNW 24 kph 10.0 miles16.1 km 30 in1016 hPa 0.00 in0.00 mm --
06:55 06:55 Cloudy Cloudy 50°F10°C 50°F10°C 100% N 14 mphN 22 kph 10.0 miles16.1 km 29.97 in1015 hPa 0.00 in0.00 mm --
06:35 06:35 Cloudy Cloudy 50°F10°C 50°F10°C 100% N 15 mphN 24 kph 10.0 miles16.1 km 30 in1016 hPa 0.00 in0.00 mm --
06:15 06:15 Cloudy Cloudy 50°F10°C 50°F10°C 100% N 13 mphN 20 kph 10.0 miles16.1 km 29.97 in1015 hPa 0.00 in0.00 mm --
05:55 05:55 Cloudy Cloudy 50°F10°C 50°F10°C 100% N 6 mphN 9 kph 10.0 miles16.1 km 30 in1016 hPa 0.00 in0.00 mm --
05:35 05:35 Cloudy Cloudy 50°F10°C 50°F10°C 100% NNW 14 mphNNW 22 kph 10.0 miles16.1 km 30 in1016 hPa 0.00 in0.00 mm --
05:15 05:15 Cloudy Cloudy 50°F10°C 50°F10°C 100% N 12 mphN 19 kph 10.0 miles16.1 km 29.97 in1015 hPa 0.00 in0.00 mm --
04:55 04:55 Cloudy Cloudy 50°F10°C 50°F10°C 100% N 12 mphN 19 kph 10.0 miles16.1 km 29.97 in1015 hPa 0.00 in0.00 mm --
04:35 04:35 Cloudy Cloudy 50°F10°C 50°F10°C 100% NNW 16 mphNNW 26 kph 10.0 miles16.1 km 29.97 in1015 hPa 0.00 in0.00 mm --
04:15 04:15 Clear Clear 50°F10°C 50°F10°C 100% NNW 14 mphNNW 22 kph 8.0 miles12.9 km 29.97 in1015 hPa 0.00 in0.00 mm --
03:55 03:55 Mostly Clear With Mist And Fog Mostly Clear With Mist And Fog 50°F10°C 50°F10°C 100% NNW 12 mphNNW 19 kph 4.0 miles6.4 km 29.97 in1015 hPa 0.00 in0.00 mm --
03:35 03:35 Cloudy Cloudy 50°F10°C 50°F10°C 100% NNW 12 mphNNW 19 kph 7.0 miles11.3 km 29.97 in1015 hPa 0.00 in0.00 mm --
03:15 03:15 Cloudy Cloudy 52°F11°C 52°F11°C 100% NNW 14 mphNNW 22 kph 9.0 miles14.5 km 29.94 in1014 hPa 0.00 in0.00 mm --
02:55 02:55 Cloudy Cloudy 52°F11°C 52°F11°C 100% N 15 mphN 24 kph 10.0 miles16.1 km 29.94 in1014 hPa 0.00 in0.00 mm --
02:35 02:35 Cloudy Cloudy 52°F11°C 52°F11°C 100% NNW 16 mphNNW 26 kph 10.0 miles16.1 km 29.94 in1014 hPa 0.00 in0.00 mm --
02:15 02:15 Cloudy Cloudy 52°F11°C 52°F11°C 100% NNW 15 mphNNW 24 kph 10.0 miles16.1 km 29.94 in1014 hPa 0.00 in0.00 mm --
01:55 01:55 Cloudy Cloudy 52°F11°C 54°F12°C % NNW 16 mphNNW 26 kph 10.0 miles16.1 km 29.91 in1013 hPa 0.00 in0.00 mm --
01:35 01:35 Cloudy Cloudy 54°F12°C 54°F12°C 100% NNW 14 mphNNW 22 kph 10.0 miles16.1 km 29.91 in1013 hPa 0.00 in0.00 mm --
01:15 01:15 Cloudy Cloudy 54°F12°C 54°F12°C 100% NNW 18 mphNNW 30 kph 10.0 miles16.1 km 29.88 in1012 hPa 0.00 in0.00 mm --
00:55 00:55 Cloudy Cloudy 54°F12°C 54°F12°C 100% NNW 14 mphNNW 22 kph 10.0 miles16.1 km 29.88 in1012 hPa 0.00 in0.00 mm --
00:35 00:35 Cloudy Cloudy 54°F12°C 54°F12°C 100% NNW 13 mphNNW 20 kph 10.0 miles16.1 km 29.88 in1012 hPa 0.00 in0.00 mm --
00:15 00:15 Cloudy Cloudy 54°F12°C 54°F12°C 100% N 14 mphN 22 kph 10.0 miles16.1 km 29.85 in1011 hPa 0.00 in0.00 mm --